Location: Follega
(52.8850°N, 5.7362°E)
Time: 22:21:34
(UTC+00:00)

USA 215 - Pass Details

Date: 01 June 2020
Orbit: 1098 x 1110 km, 123.0° (Epoch: 10 July)

Event Time Altitude Azimuth Distance (km) Brightness Sun altitude
Rises 21:07:33 0° 96° (E) 3,924 5.8 -8.4°
Reaches altitude 10° 21:10:03 10° 95° (E) 2,965 5.2 -8.6°
Maximum altitude 21:16:33 70° 13° (NNE) 1,169 3.6 -9.1°
Drops below altitude 10° 21:23:02 10° 292° (WNW) 2,962 6.4 -9.6°
Sets 21:25:31 0° 290° (WNW) 3,919 7.0 -9.8°
